This is the latest recevied weather packets stored in our database for station/object DJ4RO-13. If no packets are shown the sender has not sent any weather packets the latest 10 day(s).
| Time | Temp. | Humidity | Pressure | Rain* | Wind** | Luminosity | Snow |
|---|---|---|---|---|---|---|---|
| 1777469836 | 15.56° C | 30% | 1035.2 hPa | 0 mm | - | 438 W/m² | - |
| 1777469517 | 15° C | 30% | 1035 hPa | 0 mm | - | 445 W/m² | - |
| 1777469197 | 15.56° C | 29% | 1035.1 hPa | 0 mm | - | 457 W/m² | - |
| 1777468876 | 14.44° C | 33% | 1035.2 hPa | 0 mm | - | 477 W/m² | - |
| 1777468556 | 14.44° C | 31% | 1035.1 hPa | 0 mm | - | 69 W/m² | - |
| 1777468237 | 15° C | 29% | 1035.2 hPa | 0 mm | - | 487 W/m² | - |
| 1777467916 | 15° C | 30% | 1035.2 hPa | 0 mm | - | 500 W/m² | - |
| 1777467596 | 16.11° C | 29% | 1035.3 hPa | 0 mm | - | 498 W/m² | - |
| 1777467277 | 15° C | 31% | 1035.3 hPa | 0 mm | - | 506 W/m² | - |
| 1777466956 | 15° C | 31% | 1035.2 hPa | 0 mm | - | 514 W/m² | - |
| 1777466637 | 15° C | 31% | 1035.2 hPa | 0 mm | - | 518 W/m² | - |
| 1777466316 | 14.44° C | 31% | 1035.3 hPa | 0 mm | - | 528 W/m² | - |
| 1777465997 | 14.44° C | 30% | 1035.5 hPa | 0 mm | - | 529 W/m² | - |
| 1777465676 | 15° C | 32% | 1035.7 hPa | 0 mm | - | 538 W/m² | - |
| 1777465357 | 15° C | 30% | 1035.6 hPa | 0 mm | - | 553 W/m² | - |
| 1777465036 | 15° C | 31% | 1035.6 hPa | 0 mm | - | 591 W/m² | - |
| 1777464717 | 14.44° C | 31% | 1035.5 hPa | 0 mm | - | 555 W/m² | - |
| 1777464396 | 14.44° C | 32% | 1035.4 hPa | 0 mm | - | 555 W/m² | - |
| 1777464077 | 15° C | 31% | 1035.6 hPa | 0 mm | - | 558 W/m² | - |
| 1777463756 | 13.89° C | 32% | 1035.6 hPa | 0 mm | - | 561 W/m² | - |
| 1777463437 | 13.89° C | 31% | 1035.5 hPa | 0 mm | - | 569 W/m² | - |
| 1777463116 | 13.33° C | 32% | 1035.7 hPa | 0 mm | - | 572 W/m² | - |
| 1777462796 | 13.33° C | 33% | 1035.6 hPa | 0 mm | - | 581 W/m² | - |
| 1777462476 | 13.89° C | 30% | 1035.7 hPa | 0 mm | - | 577 W/m² | - |
| 1777462156 | 13.89° C | 33% | 1035.9 hPa | 0 mm | - | 579 W/m² | - |
* Rain latest hour (hover to see other rain measurements)
** Current wind speed in m/s (hover to see current wind gust speed)